Time,TemperatureF,DewpointF,PressureIn,WindDirection,WindDirectionDegrees,WindSpeedMPH,WindSpeedGustMPH,Humidity,HourlyPrecipIn,Conditions,Clouds,dailyrainin,SoftwareType,DateUTC
2013-03-17 00:01:00,29.2,13.0,29.88,North,360,0.0,0.0,52,0.00,,,0.00,weatherlink.com 1.10,2013-03-17 04:01:00,
2013-03-17 00:16:00,28.8,14.0,29.88,NW,310,0.0,1.0,54,0.00,,,0.00,weatherlink.com 1.10,2013-03-17 04:16:00,
2013-03-17 00:31:00,27.9,14.0,29.89,NW,318,0.0,1.0,57,0.00,,,0.00,weatherlink.com 1.10,2013-03-17 04:31:00,
2013-03-17 00:46:00,27.4,14.0,29.89,NW,319,0.0,0.0,57,0.00,,,0.00,weatherlink.com 1.10,2013-03-17 04:46:00,
2013-03-17 01:01:00,26.6,15.0,29.89,SSW,198,0.0,1.0,61,0.00,,,0.00,weatherlink.com 1.10,2013-03-17 05:01:00,
2013-03-17 01:16:00,26.5,15.0,29.90,SE,137,0.0,0.0,62,0.00,,,0.00,weatherlink.com 1.10,2013-03-17 05:16:00,
2013-03-17 01:31:00,25.9,16.0,29.90,SE,136,0.0,1.0,65,0.00,,,0.00,weatherlink.com 1.10,2013-03-17 05:31:00,
2013-03-17 01:46:00,25.4,15.0,29.91,ENE,57,0.0,0.0,66,0.00,,,0.00,weatherlink.com 1.10,2013-03-17 05:46:00,
2013-03-17 02:01:00,25.9,16.0,29.90,NE,49,0.0,1.0,65,0.00,,,0.00,weatherlink.com 1.10,2013-03-17 06:01:00,
2013-03-17 02:16:00,25.3,16.0,29.90,ESE,115,0.0,1.0,69,0.00,,,0.00,weatherlink.com 1.10,2013-03-17 06:16:00,
2013-03-17 02:31:00,24.9,16.0,29.90,SW,235,1.0,1.0,70,0.00,,,0.00,weatherlink.com 1.10,2013-03-17 06:31:00,
2013-03-17 02:46:00,24.7,16.0,29.91,ENE,76,1.0,2.0,70,0.00,,,0.00,weatherlink.com 1.10,2013-03-17 06:46:00,
2013-03-17 03:01:00,24.9,16.0,29.91,SSE,152,0.0,2.0,70,0.00,,,0.00,weatherlink.com 1.10,2013-03-17 07:01:00,
2013-03-17 03:16:00,23.7,17.0,29.90,West,264,0.0,1.0,74,0.00,,,0.00,weatherlink.com 1.10,2013-03-17 07:16:00,
2013-03-17 03:31:00,23.6,16.0,29.92,SW,236,0.0,1.0,74,0.00,,,0.00,weatherlink.com 1.10,2013-03-17 07:31:00,
2013-03-17 03:47:00,23.6,16.0,29.92,WNW,285,0.0,1.0,74,0.00,,,0.00,weatherlink.com 1.10,2013-03-17 07:47:00,
2013-03-17 04:02:00,24.4,17.0,29.92,East,84,0.0,1.0,72,0.00,,,0.00,weatherlink.com 1.10,2013-03-17 08:02:00,
2013-03-17 04:17:00,23.7,16.0,29.93,WNW,291,1.0,1.0,72,0.00,,,0.00,weatherlink.com 1.10,2013-03-17 08:17:00,
2013-03-17 04:32:00,24.4,16.0,29.94,WNW,297,0.0,5.0,70,0.00,,,0.00,weatherlink.com 1.10,2013-03-17 08:32:00,
2013-03-17 04:47:00,24.6,16.0,29.93,WNW,294,1.0,4.0,69,0.00,,,0.00,weatherlink.com 1.10,2013-03-17 08:47:00,
2013-03-17 05:02:00,24.5,16.0,29.93,WNW,295,1.0,4.0,69,0.00,,,0.00,weatherlink.com 1.10,2013-03-17 09:02:00,
2013-03-17 05:17:00,24.3,15.0,29.93,WSW,245,0.0,1.0,69,0.00,,,0.00,weatherlink.com 1.10,2013-03-17 09:17:00,
2013-03-17 05:32:00,23.9,15.0,29.94,West,270,2.0,2.0,70,0.00,,,0.00,weatherlink.com 1.10,2013-03-17 09:32:00,
2013-03-17 05:47:00,24.0,16.0,29.95,West,273,2.0,3.0,70,0.00,,,0.00,weatherlink.com 1.10,2013-03-17 09:47:00,
2013-03-17 06:02:00,23.9,15.0,29.95,WSW,254,2.0,5.0,70,0.00,,,0.00,weatherlink.com 1.10,2013-03-17 10:02:00,
2013-03-17 06:17:00,23.8,15.0,29.97,WNW,287,2.0,4.0,69,0.00,,,0.00,weatherlink.com 1.10,2013-03-17 10:17:00,
2013-03-17 06:32:00,23.7,15.0,29.97,West,280,0.0,5.0,70,0.00,,,0.00,weatherlink.com 1.10,2013-03-17 10:32:00,
2013-03-17 06:47:00,23.3,15.0,29.99,West,274,0.0,5.0,70,0.00,,,0.00,weatherlink.com 1.10,2013-03-17 10:47:00,
2013-03-17 07:02:00,22.8,15.0,30.00,WNW,290,0.0,4.0,71,0.00,,,0.00,weatherlink.com 1.10,2013-03-17 11:02:00,
2013-03-17 07:17:00,23.0,14.0,30.01,West,277,1.0,7.0,69,0.00,,,0.00,weatherlink.com 1.10,2013-03-17 11:17:00,
2013-03-17 07:32:00,23.8,14.0,30.02,WNW,283,1.0,8.0,65,0.00,,,0.00,weatherlink.com 1.10,2013-03-17 11:32:00,
2013-03-17 07:47:00,24.3,13.0,30.03,West,262,1.0,4.0,62,0.00,,,0.00,weatherlink.com 1.10,2013-03-17 11:47:00,
2013-03-17 08:02:00,24.7,13.0,30.05,NW,307,0.0,8.0,61,0.00,,,0.00,weatherlink.com 1.10,2013-03-17 12:02:00,
2013-03-17 08:17:00,25.3,12.0,30.05,West,262,4.0,8.0,58,0.00,,,0.00,weatherlink.com 1.10,2013-03-17 12:17:00,
2013-03-17 08:32:00,25.9,12.0,30.05,NNW,332,1.0,7.0,57,0.00,,,0.00,weatherlink.com 1.10,2013-03-17 12:32:00,
2013-03-17 08:47:00,26.9,13.0,30.05,NW,310,3.0,8.0,55,0.00,,,0.00,weatherlink.com 1.10,2013-03-17 12:47:00,
2013-03-17 09:02:00,27.6,12.0,30.06,WNW,301,0.0,8.0,52,0.00,,,0.00,weatherlink.com 1.10,2013-03-17 13:02:00,
2013-03-17 09:17:00,28.2,12.0,30.06,NNW,335,7.0,9.0,50,0.00,,,0.00,weatherlink.com 1.10,2013-03-17 13:17:00,
2013-03-17 09:32:00,28.9,12.0,30.06,NNE,29,5.0,9.0,49,0.00,,,0.00,weatherlink.com 1.10,2013-03-17 13:32:00,
2013-03-17 09:47:00,29.5,12.0,30.05,WSW,253,2.0,10.0,48,0.00,,,0.00,weatherlink.com 1.10,2013-03-17 13:47:00,
2013-03-17 10:02:00,30.2,12.0,30.05,NW,306,5.0,12.0,47,0.00,,,0.00,weatherlink.com 1.10,2013-03-17 14:02:00,
2013-03-17 10:17:00,30.0,11.0,30.06,WSW,245,3.0,10.0,46,0.00,,,0.00,weatherlink.com 1.10,2013-03-17 14:17:00,
2013-03-17 10:32:00,30.2,12.0,30.06,WNW,289,9.0,12.0,46,0.00,,,0.00,weatherlink.com 1.10,2013-03-17 14:32:00,
2013-03-17 10:48:00,31.2,11.0,30.07,WSW,249,3.0,15.0,44,0.00,,,0.00,weatherlink.com 1.10,2013-03-17 14:48:00,
2013-03-17 11:02:00,31.3,13.0,30.06,WNW,294,4.0,16.0,46,0.00,,,0.00,weatherlink.com 1.10,2013-03-17 15:02:00,
2013-03-17 11:18:00,32.1,12.0,30.06,WNW,297,2.0,13.0,44,0.00,,,0.00,weatherlink.com 1.10,2013-03-17 15:18:00,
2013-03-17 11:33:00,33.6,13.0,30.07,NNW,347,4.0,12.0,42,0.00,,,0.00,weatherlink.com 1.10,2013-03-17 15:33:00,
2013-03-17 11:48:00,33.8,11.0,30.07,NNE,23,4.0,12.0,38,0.00,,,0.00,weatherlink.com 1.10,2013-03-17 15:48:00,
2013-03-17 12:03:00,34.0,8.0,30.07,West,276,3.0,16.0,34,0.00,,,0.00,weatherlink.com 1.10,2013-03-17 16:03:00,
2013-03-17 12:19:00,34.1,7.0,30.07,WNW,283,5.0,18.0,32,0.00,,,0.00,weatherlink.com 1.10,2013-03-17 16:19:00,
2013-03-17 12:33:00,34.4,6.0,30.07,NW,304,16.0,19.0,30,0.00,,,0.00,weatherlink.com 1.10,2013-03-17 16:33:00,
2013-03-17 12:48:00,34.6,5.0,30.07,NW,319,7.0,18.0,29,0.00,,,0.00,weatherlink.com 1.10,2013-03-17 16:48:00,
2013-03-17 13:03:00,35.0,6.0,30.06,North,351,10.0,16.0,29,0.00,,,0.00,weatherlink.com 1.10,2013-03-17 17:03:00,
2013-03-17 13:18:00,35.1,4.0,30.07,NNW,345,9.0,20.0,27,0.00,,,0.00,weatherlink.com 1.10,2013-03-17 17:18:00,
2013-03-17 13:33:00,35.0,6.0,30.07,NNE,14,4.0,22.0,29,0.00,,,0.00,weatherlink.com 1.10,2013-03-17 17:33:00,
2013-03-17 13:49:00,34.9,4.0,30.07,NNW,330,8.0,20.0,27,0.00,,,0.00,weatherlink.com 1.10,2013-03-17 17:49:00,
2013-03-17 14:03:00,34.9,5.0,30.07,NW,316,9.0,17.0,29,0.00,,,0.00,weatherlink.com 1.10,2013-03-17 18:03:00,
2013-03-17 14:18:00,35.2,5.0,30.07,NNW,327,3.0,18.0,28,0.00,,,0.00,weatherlink.com 1.10,2013-03-17 18:18:00,
2013-03-17 14:33:00,34.7,5.0,30.07,NW,316,6.0,17.0,29,0.00,,,0.00,weatherlink.com 1.10,2013-03-17 18:33:00,
2013-03-17 14:48:00,34.5,5.0,30.08,NNW,339,8.0,19.0,29,0.00,,,0.00,weatherlink.com 1.10,2013-03-17 18:48:00,
2013-03-17 15:03:00,34.5,6.0,30.08,NNW,335,5.0,13.0,30,0.00,,,0.00,weatherlink.com 1.10,2013-03-17 19:03:00,
2013-03-17 15:18:00,35.2,6.0,30.09,North,352,6.0,13.0,29,0.00,,,0.00,weatherlink.com 1.10,2013-03-17 19:18:00,
2013-03-17 15:33:00,35.3,6.0,30.08,NNE,18,3.0,9.0,29,0.00,,,0.00,weatherlink.com 1.10,2013-03-17 19:33:00,
2013-03-17 15:48:00,35.7,5.0,30.08,North,8,11.0,16.0,27,0.00,,,0.00,weatherlink.com 1.10,2013-03-17 19:48:00,
2013-03-17 16:03:00,36.0,5.0,30.08,NNE,16,8.0,15.0,27,0.00,,,0.00,weatherlink.com 1.10,2013-03-17 20:03:00,
2013-03-17 16:18:00,35.7,4.0,30.09,WNW,302,4.0,18.0,26,0.00,,,0.00,weatherlink.com 1.10,2013-03-17 20:18:00,
2013-03-17 16:33:00,36.1,4.0,30.09,NW,307,2.0,16.0,26,0.00,,,0.00,weatherlink.com 1.10,2013-03-17 20:33:00,
2013-03-17 16:48:00,36.3,3.0,30.09,NW,316,1.0,15.0,25,0.00,,,0.00,weatherlink.com 1.10,2013-03-17 20:48:00,
2013-03-17 17:03:00,36.3,3.0,30.10,WNW,283,2.0,9.0,25,0.00,,,0.00,weatherlink.com 1.10,2013-03-17 21:03:00,
2013-03-17 17:18:00,36.6,5.0,30.10,NNW,331,5.0,8.0,26,0.00,,,0.00,weatherlink.com 1.10,2013-03-17 21:18:00,
2013-03-17 17:33:00,36.1,4.0,30.11,NNW,330,9.0,14.0,26,0.00,,,0.00,weatherlink.com 1.10,2013-03-17 21:33:00,
2013-03-17 17:48:00,35.5,4.0,30.12,SSW,207,3.0,9.0,26,0.00,,,0.00,weatherlink.com 1.10,2013-03-17 21:48:00,
2013-03-17 18:03:00,34.8,4.0,30.13,North,356,10.0,12.0,27,0.00,,,0.00,weatherlink.com 1.10,2013-03-17 22:03:00,
2013-03-17 18:18:00,34.3,3.0,30.13,NW,325,2.0,10.0,27,0.00,,,0.00,weatherlink.com 1.10,2013-03-17 22:18:00,
2013-03-17 18:33:00,33.6,4.0,30.14,NW,310,7.0,8.0,28,0.00,,,0.00,weatherlink.com 1.10,2013-03-17 22:33:00,
2013-03-17 18:48:00,32.9,4.0,30.15,WNW,297,1.0,6.0,29,0.00,,,0.00,weatherlink.com 1.10,2013-03-17 22:48:00,
2013-03-17 19:03:00,32.3,4.0,30.16,WNW,298,0.0,9.0,30,0.00,,,0.00,weatherlink.com 1.10,2013-03-17 23:03:00,
2013-03-17 19:18:00,31.8,4.0,30.18,NNW,329,0.0,6.0,31,0.00,,,0.00,weatherlink.com 1.10,2013-03-17 23:18:00,
2013-03-17 19:33:00,30.8,5.0,30.19,NW,305,0.0,2.0,33,0.00,,,0.00,weatherlink.com 1.10,2013-03-17 23:33:00,
2013-03-17 19:48:00,30.4,4.0,30.19,WSW,250,0.0,3.0,33,0.00,,,0.00,weatherlink.com 1.10,2013-03-17 23:48:00,
2013-03-17 20:04:00,29.9,5.0,30.20,NW,304,1.0,4.0,34,0.00,,,0.00,weatherlink.com 1.10,2013-03-18 00:04:00,
2013-03-17 20:19:00,29.8,4.0,30.21,SW,229,0.0,2.0,34,0.00,,,0.00,weatherlink.com 1.10,2013-03-18 00:19:00,
2013-03-17 20:34:00,28.7,6.0,30.22,SW,219,0.0,1.0,38,0.00,,,0.00,weatherlink.com 1.10,2013-03-18 00:34:00,
2013-03-17 20:49:00,29.0,5.0,30.22,NW,319,1.0,4.0,36,0.00,,,0.00,weatherlink.com 1.10,2013-03-18 00:49:00,
2013-03-17 21:04:00,28.7,6.0,30.23,NNW,333,0.0,3.0,38,0.00,,,0.00,weatherlink.com 1.10,2013-03-18 01:04:00,
2013-03-17 21:19:00,27.6,6.0,30.23,NW,323,0.0,2.0,40,0.00,,,0.00,weatherlink.com 1.10,2013-03-18 01:19:00,
2013-03-17 21:34:00,27.7,4.0,30.25,WNW,285,0.0,3.0,37,0.00,,,0.00,weatherlink.com 1.10,2013-03-18 01:34:00,
2013-03-17 21:49:00,27.2,5.0,30.25,SSE,165,0.0,1.0,39,0.00,,,0.00,weatherlink.com 1.10,2013-03-18 01:49:00,
2013-03-17 22:04:00,25.7,10.0,30.25,NW,322,0.0,1.0,51,0.00,,,0.00,weatherlink.com 1.10,2013-03-18 02:04:00,
2013-03-17 22:19:00,26.1,7.0,30.27,SE,131,0.0,1.0,45,0.00,,,0.00,weatherlink.com 1.10,2013-03-18 02:19:00,
2013-03-17 22:34:00,26.2,8.0,30.28,ESE,110,0.0,1.0,46,0.00,,,0.00,weatherlink.com 1.10,2013-03-18 02:34:00,
2013-03-17 22:49:00,24.4,8.0,30.28,NNE,18,0.0,1.0,50,0.00,,,0.00,weatherlink.com 1.10,2013-03-18 02:49:00,
2013-03-17 23:04:00,24.8,9.0,30.29,North,11,0.0,1.0,51,0.00,,,0.00,weatherlink.com 1.10,2013-03-18 03:04:00,
2013-03-17 23:19:00,23.8,9.0,30.30,ENE,64,0.0,2.0,54,0.00,,,0.00,weatherlink.com 1.10,2013-03-18 03:19:00,
2013-03-17 23:34:00,23.4,10.0,30.30,ENE,63,0.0,0.0,56,0.00,,,0.00,weatherlink.com 1.10,2013-03-18 03:34:00,
2013-03-17 23:49:00,24.3,9.0,30.31,East,82,0.0,2.0,52,0.00,,,0.00,weatherlink.com 1.10,2013-03-18 03:49:00,